EW4195 Weather Reports


time (UTC)temp
C
wind
direction
speed
KPH
gust
KPH
rain 1hr
cm
rain 24hr
cm
rain mn
cm
humidity
%
barometer
mb
20260507191521 11 132 4.8 11.3 0.00 0.00 0.00 1 1015.4
20260507190455 11 130 4.8 11.3 0.00 0.00 0.00 1 1015.4
20260507185438 11 128 3.2 11.3 0.00 0.00 0.00 1 1015.4
20260507183225 12 125 3.2 12.9 0.00 0.00 0.00 1 1015.3
20260507181100 12 124 3.2 11.3 0.00 0.00 0.00 1 1015.3
20260507180123 12 132 3.2 11.3 0.00 0.00 0.00 1 1015.2
20260507175055 12 126 3.2 11.3 0.00 0.00 0.00 1 1015.2
20260507174047 12 121 4.8 11.3 0.00 0.00 0.00 1 1015.2
20260507173037 12 116 4.8 11.3 0.00 0.00 0.00 1 1015.2
20260507172036 12 119 3.2 9.7 0.00 0.00 0.00 1 1015.2
20260507171031 12 119 3.2 9.7 0.00 0.00 0.00 1 1015.2
20260507164903 12 114 3.2 12.9 0.00 0.00 0.00 1 1015.3
20260507163845 12 111 3.2 12.9 0.00 0.00 0.00 1 1015.4
20260507161704 12 124 6.4 14.5 0.00 0.00 0.00 1 1015.4
20260507160716 12 110 6.4 14.5 0.00 0.00 0.00 1 1015.4
20260507155720 12 136 6.4 12.9 0.00 0.00 0.00 1 1015.4
20260507153523 13 113 4.8 14.5 0.00 0.00 0.00 1 1015.4
20260507152537 13 48 6.4 16.1 0.00 0.00 0.00 1 1015.4
20260507150451 13 64 6.4 16.1 0.00 0.00 0.00 1 1015.3
20260507144325 13 89 8.0 16.1 0.00 0.00 0.00 1 1015.4
20260507143323 13 67 8.0 16.1 0.00 0.00 0.00 1 1015.4
20260507142307 13 96 4.8 14.5 0.00 0.00 0.00 1 1015.5
20260507141240 13 69 6.4 19.3 0.00 0.00 0.00 1 1015.6
20260507140259 13 78 8.0 19.3 0.00 0.00 0.00 1 1015.6
20260507135232 13 72 6.4 16.1 0.00 0.00 0.00 4 1015.6
20260507134248 13 86 6.4 17.7 0.00 0.00 0.00 8 1015.6
20260507133306 13 91 6.4 17.7 0.00 0.00 0.00 11 1015.5
20260507132311 13 77 6.4 16.1 0.00 0.00 0.00 19 1015.6
20260507131300 13 90 6.4 19.3 0.00 0.00 0.00 22 1015.6
20260507130227 13 74 8.0 19.3 0.00 0.00 0.00 23 1015.6
20260507125211 14 73 6.4 17.7 0.00 0.00 0.00 21 1015.6
20260507124202 13 60 6.4 16.1 0.00 0.00 0.00 9 1015.6
20260507122043 13 50 8.0 19.3 0.00 0.00 0.00 16 1015.7
20260507121019 13 84 9.7 17.7 0.00 0.00 0.00 20 1015.7
20260507115949 13 78 6.4 16.1 0.00 0.00 0.00 28 1015.7
20260507115011 13 82 8.0 19.3 0.00 0.00 0.00 29 1015.6
20260507114023 13 70 8.0 19.3 0.00 0.00 0.00 29 1015.7
20260507112958 13 74 6.4 14.5 0.00 0.00 0.00 32 1015.7
20260507111955 13 78 6.4 16.1 0.00 0.00 0.00 36 1015.7
20260507105815 14 59 8.0 19.3 0.00 0.00 0.00 40 1015.7
20260507104816 15 15 9.7 19.3 0.00 0.00 0.00 43 1015.8
20260507103805 15 37 9.7 19.3 0.00 0.00 0.00 44 1015.8
20260507102817 15 11 8.0 17.7 0.00 0.00 0.00 45 1015.9
20260507101759 15 32 9.7 17.7 0.00 0.00 0.00 43 1015.9
20260507095637 14 58 6.4 17.7 0.00 0.00 0.00 37 1015.8
20260507094700 14 60 8.0 17.7 0.00 0.00 0.00 38 1015.8
20260507093648 14 34 8.0 16.1 0.00 0.00 0.00 39 1015.8
20260507091520 13 46 6.4 14.5 0.00 0.00 0.00 33 1015.8
20260507090508 13 25 4.8 14.5 0.00 0.00 0.00 27 1015.7
20260507085447 13 55 6.4 14.5 0.00 0.00 0.00 28 1015.6
20260507084423 13 42 6.4 14.5 0.00 0.00 0.00 23 1015.6
20260507082300 13 36 4.8 12.9 0.00 0.00 0.00 22 1015.6
20260507081241 12 65 4.8 12.9 0.00 0.00 0.00 14 1015.6
20260507080208 12 91 4.8 4.8 0.00 0.00 0.00 13 1015.4
20260507080008 12 93 4.8 14.5 0.00 0.00 0.00 13 1015.5
20260507074947 12 78 3.2 11.3 0.00 0.00 0.00 11 1015.4
20260507072804 12 62 4.8 12.9 0.00 0.00 0.00 1 1015.3
20260507071758 12 65 3.2 12.9 0.00 0.00 0.00 1 1015.3
20260507070804 11 63 3.2 9.7 0.00 0.00 0.00 1 1015.2
20260507065822 11 104 3.2 9.7 0.00 0.00 0.00 1 1015.2
20260507064840 11 57 1.6 9.7 0.00 0.00 0.00 1 1015.2
20260507063836 11 74 1.6 6.4 0.00 0.00 0.00 1 1015.1
20260507062845 11 70 0.0 0.0 0.00 0.00 0.00 1 1015.1
20260507061831 11 70 0.0 0.0 0.00 0.00 0.00 1 1015.0
20260507060836 10 70 0.0 0.0 0.00 0.00 0.00 1 1015.0
20260507054711 10 69 0.0 0.0 0.00 0.00 0.00 1 1014.8
20260507053647 10 69 0.0 0.0 0.00 0.00 0.00 1 1014.7
20260507052631 10 69 0.0 0.0 0.00 0.00 0.00 1 1014.7
20260507051636 10 69 0.0 0.0 0.00 0.00 0.00 1 1014.7
20260507050606 10 69 0.0 0.0 0.00 0.00 0.00 1 1014.7
20260507045543 10 69 0.0 0.0 0.00 0.00 0.00 1 1014.6
20260507044541 10 69 0.0 0.0 0.00 0.00 0.00 1 1014.5
20260507043529 10 69 0.0 0.0 0.00 0.00 0.00 1 1014.3
20260507041423 10 67 0.0 0.0 0.00 0.00 0.00 1 1014.3
20260507035212 10 66 0.0 0.0 0.00 0.00 0.00 1 1014.3
20260507034233 10 66 0.0 0.0 0.00 0.00 0.00 1 1014.2
20260507033257 10 66 0.0 0.0 0.00 0.00 0.00 1 1014.2
20260507032223 10 66 0.0 0.0 0.00 0.00 0.00 1 1014.2
20260507030122 10 66 0.0 0.0 0.00 0.00 0.00 1 1014.2
20260507025132 10 66 0.0 0.0 0.00 0.00 0.00 1 1014.1
20260507024153 10 66 0.0 0.0 0.00 0.00 0.00 1 1014.0
20260507023202 10 64 0.0 1.6 0.00 0.00 0.00 1 1014.0
20260507021014 10 64 0.0 0.0 0.00 0.00 0.00 1 1014.0
20260507015943 10 64 0.0 0.0 0.00 0.00 0.00 1 1014.0
20260507013745 10 64 1.6 6.4 0.00 0.00 0.00 1 1014.0
20260507012746 10 61 1.6 3.2 0.00 0.00 0.00 1 1014.0
20260507011738 10 59 1.6 4.8 0.00 0.00 0.00 1 1014.0
20260507005635 10 48 1.6 8.0 0.00 0.00 0.00 1 1014.0
20260507004635 10 40 3.2 11.3 0.00 0.00 0.00 1 1013.9
20260507002540 10 52 3.2 9.7 0.00 0.00 0.00 1 1013.8
20260507001524 10 65 3.2 8.0 0.00 0.00 0.00 1 1013.9
20260507000527 10 52 3.2 11.3 0.00 0.00 0.00 1 1013.9
20260506235549 10 36 3.2 11.3 0.00 0.00 0.00 1 1014.0
20260506234541 10 72 1.6 8.0 0.00 0.00 0.00 1 1014.0
20260506233539 10 61 1.6 6.4 0.00 0.00 0.00 1 1013.9
20260506232553 10 65 1.6 11.3 0.00 0.00 0.00 1 1013.9
20260506231555 10 73 3.2 11.3 0.00 0.00 0.00 1 1013.8
20260506230556 11 72 1.6 9.7 0.00 0.00 0.00 1 1013.9
20260506225614 10 77 1.6 9.7 0.00 0.00 0.00 1 1013.9
20260506224620 10 76 1.6 9.7 0.00 0.00 0.00 1 1013.8
20260506223551 10 50 3.2 6.4 0.00 0.00 0.00 1 1013.8
20260506222524 11 73 1.6 9.7 0.00 0.00 0.00 1 1013.7
20260506215212 11 76 3.2 12.9 0.00 0.00 0.00 1 1013.6
20260506214223 11 70 4.8 12.9 0.00 0.00 0.00 1 1013.6
20260506213148 11 73 3.2 12.9 0.00 0.00 0.00 1 1013.5
20260506212208 11 69 4.8 14.5 0.00 0.00 0.00 1 1013.5
20260506211228 11 69 4.8 17.7 0.00 0.00 0.00 1 1013.5
20260506210159 11 36 6.4 17.7 0.00 0.00 0.00 1 1013.4
20260506205209 11 49 6.4 16.1 0.00 0.00 0.00 1 1013.4
20260506204139 11 71 4.8 14.5 0.00 0.00 0.00 1 1013.4
20260506203110 11 63 4.8 12.9 0.00 0.00 0.00 1 1013.3
20260506202043 11 67 3.2 14.5 0.00 0.00 0.00 1 1013.2
20260506201045 11 59 4.8 14.5 0.00 0.00 0.00 1 1013.2
20260506200030 11 33 6.4 16.1 0.00 0.00 0.00 1 1013.1
20260506195016 11 42 4.8 16.1 0.00 0.00 0.00 1 1013.0
20260506194012 11 58 4.8 14.5 0.00 0.00 0.00 1 1012.9
20260506193011 11 75 6.4 16.1 0.00 0.00 0.00 1 1012.7